Wilmington, NC

4:02 AM EDT on July 22, 2017 (GMT -0400)
Wilmington International

Weather History for KILM - December, 2012

Change the Weather History Date:

Monday, December 10, 2012

  Actual Average Record
Temperature  
Mean Temperature 69 °F 50 °F  
Max Temperature 75 °F 61 °F 78 °F (1966)
Min Temperature 62 °F 39 °F 15 °F (1876)
Degree Days  
Heating Degree Days 0 15  
Month to date heating degree days 64 142  
Since 1 July heating degree days 579 511  
Cooling Degree Days 4 0  
Month to date cooling degree days 4 0  
Year to date cooling degree days 2173 2037  
Growing Degree Days 18 (Base 50)    
Moisture  
Dew Point 63 °F    
Average Humidity 84    
Maximum Humidity 100    
Minimum Humidity 68    
Precipitation  
Precipitation 0.02 in 0.12 in 1.82 in (1992)
Month to date precipitation 0.10 1.16  
Year to date precipitation 45.96 55.15  
Snow  
Snow 0.00 in 0.00 in - ()
Month to date snowfall 0.0 0.1  
Since 1 July snowfall 0.0 0.1  
Snow Depth 0.00 in    
Sea Level Pressure  
Sea Level Pressure 29.87 in    
Wind  
Wind Speed 9 mph (SSW)    
Max Wind Speed 22 mph    
Max Gust Speed 28 mph    
Visibility 8 miles    
Events Fog , Rain    
T = Trace of Precipitation, MM = Missing Value Source: NWS Daily Summary

Daily Weather History Graph

Daily Weather History Graph

Search for Another Location

Airport or City:

Trip Planner

Search our weather history database for the weather conditions in past years. The results will help you decide how hot, cold, wet, or windy it might be!

Date:

Astronomy

Dec. 10, 2012 Rise Set
Actual Time 7:07 AM EST 5:02 PM EST
Civil Twilight 6:39 AM EST 5:29 PM EST
Nautical Twilight 6:08 AM EST 6:01 PM EST
Astronomical Twilight 5:37 AM EST 6:31 PM EST
Moon 3:53 AM EST (12/10) 2:45 PM EST (12/10)
Length of Visible Light 10h 50m
Length of Day
9h 54m
Waning Crescent, 10% of the Moon is Illuminated
Dec 10
Waning Crescent
Dec 13
New
Dec 20
First Quarter
Dec 28
Full
Jan 4
Last Quarter

Hourly Weather History & Observations

Time (EST) Temp. Dew Point Humidity Pressure Visibility Wind Dir Wind Speed Gust Speed Precip Events Conditions
12:53 AM 66.9 °F 64.0 °F 90% 29.99 in 10.0 mi SSE 4.6 mph - 0.00 in   Overcast
1:26 AM 66.2 °F 64.4 °F 94% 29.98 in 7.0 mi SSE 9.2 mph - 0.00 in Rain Light Rain
1:53 AM 66.0 °F 64.0 °F 93% 29.97 in 9.0 mi SE 6.9 mph - 0.00 in Rain Light Rain
2:53 AM 66.0 °F 64.0 °F 93% 29.95 in 10.0 mi SE 5.8 mph - 0.02 in   Overcast
3:02 AM 66.2 °F 64.4 °F 94% 29.94 in 10.0 mi ESE 4.6 mph - N/A   Overcast
3:12 AM 66.2 °F 64.4 °F 94% 29.94 in 10.0 mi East 4.6 mph - N/A   Overcast
3:20 AM 66.2 °F 64.4 °F 94% 29.93 in 10.0 mi East 3.5 mph - N/A   Overcast
3:53 AM 66.0 °F 64.0 °F 93% 29.91 in 8.0 mi East 3.5 mph - N/A   Overcast
4:53 AM 64.9 °F 64.0 °F 97% 29.89 in 3.0 mi Calm Calm - N/A   Overcast
5:06 AM 64.4 °F 64.4 °F 100% 29.89 in 2.0 mi Calm Calm - N/A   Overcast
5:18 AM 64.4 °F 64.4 °F 100% 29.88 in 1.2 mi Calm Calm - N/A   Overcast
5:28 AM 64.4 °F 64.4 °F 100% 29.88 in 0.8 mi Calm Calm - N/A   Overcast
5:53 AM 64.9 °F 64.0 °F 97% 29.88 in 0.5 mi Calm Calm - N/A Fog Fog
6:53 AM 64.9 °F 64.0 °F 97% 29.88 in 0.8 mi Calm Calm - N/A   Mist
7:20 AM 64.4 °F 64.4 °F 100% 29.89 in 1.5 mi WSW 5.8 mph - N/A   Overcast
7:22 AM 64.4 °F 64.4 °F 100% 29.89 in 3.0 mi WSW 5.8 mph - N/A   Overcast
7:39 AM 64.4 °F 64.4 °F 100% 29.89 in 4.0 mi SW 5.8 mph - N/A   Overcast
7:53 AM 66.0 °F 64.0 °F 93% 29.89 in 3.0 mi SW 6.9 mph - N/A   Overcast
8:12 AM 66.2 °F 64.4 °F 94% 29.89 in 3.0 mi SW 9.2 mph - N/A   Overcast
8:53 AM 66.0 °F 64.9 °F 96% 29.90 in 8.0 mi SW 6.9 mph - N/A   Overcast
9:17 AM 66.2 °F 64.4 °F 94% 29.90 in 10.0 mi WSW 8.1 mph - N/A   Overcast
9:53 AM 69.1 °F 64.9 °F 87% 29.90 in 10.0 mi SW 9.2 mph - N/A   Overcast
10:05 AM 69.8 °F 64.4 °F 83% 29.89 in 10.0 mi WSW 11.5 mph - N/A   Overcast
10:41 AM 71.6 °F 64.4 °F 78% 29.89 in 10.0 mi WSW 12.7 mph - N/A   Mostly Cloudy
10:53 AM 72.0 °F 64.0 °F 76% 29.88 in 10.0 mi WSW 10.4 mph - N/A   Scattered Clouds
11:11 AM 73.4 °F 64.4 °F 73% 29.87 in 10.0 mi SW 12.7 mph - N/A   Mostly Cloudy
11:53 AM 73.0 °F 63.0 °F 71% 29.85 in 10.0 mi SW 17.3 mph 21.9 mph N/A   Mostly Cloudy
12:10 PM 73.4 °F 62.6 °F 69% 29.84 in 10.0 mi SSW 15.0 mph 23.0 mph N/A   Scattered Clouds
12:53 PM 71.1 °F 62.1 °F 73% 29.83 in 10.0 mi SW 13.8 mph 24.2 mph N/A   Partly Cloudy
1:53 PM 72.0 °F 61.0 °F 68% 29.81 in 10.0 mi SSW 16.1 mph - N/A   Partly Cloudy
2:53 PM 71.1 °F 61.0 °F 70% 29.81 in 10.0 mi SSW 15.0 mph 20.7 mph N/A   Partly Cloudy
3:53 PM 68.0 °F 60.1 °F 76% 29.81 in 10.0 mi SSW 16.1 mph 21.9 mph N/A   Clear
4:50 PM 64.4 °F 60.8 °F 88% 29.81 in 10.0 mi SSW 13.8 mph 21.9 mph N/A   Partly Cloudy
4:53 PM 64.0 °F 60.1 °F 87% 29.81 in 10.0 mi SSW 10.4 mph 21.9 mph N/A   Scattered Clouds
5:07 PM 64.4 °F 60.8 °F 88% 29.81 in 9.0 mi SSW 10.4 mph - N/A   Mostly Cloudy
5:22 PM 62.6 °F 60.8 °F 94% 29.81 in 10.0 mi SSW 9.2 mph - N/A   Scattered Clouds
5:53 PM 63.0 °F 60.1 °F 90% 29.81 in 10.0 mi SSW 8.1 mph - N/A   Clear
6:53 PM 63.0 °F 57.9 °F 84% 29.82 in 10.0 mi SSW 10.4 mph - N/A   Clear
7:53 PM 63.0 °F 57.9 °F 84% 29.81 in 10.0 mi SSW 8.1 mph - N/A   Clear
8:53 PM 63.0 °F 57.9 °F 84% 29.81 in 10.0 mi SSW 10.4 mph - N/A   Clear
9:53 PM 64.9 °F 57.9 °F 78% 29.80 in 10.0 mi South 12.7 mph - N/A   Clear
10:53 PM 66.0 °F 62.1 °F 87% 29.82 in 10.0 mi SSW 11.5 mph - N/A   Clear
11:53 PM 66.9 °F 63.0 °F 87% 29.80 in 10.0 mi SSW 9.2 mph - N/A   Clear